Home   Weather   Alexandroupoli   Past weeks

Flag for Greece Past Weather in Alexandroupoli, Greece — Yesterday and Last 2 Weeks

Now
90 °F

Sunny.


Feels Like: 88 °F
Forecast: 70 / 89 °F
Wind: 14 mph from North

Location: Alexandroupoli Airport

Current Time: Jul 22, 2017 at 2:00:20 pm

Latest Report: Jul 22, 2017 at 1:20 pm


Visibility: 10 mi

Pressure: 29.98 "Hg

Humidity: 31%

Dew Point: 55 °F

Location of AlexandroupoliLocation

Past Weather in Alexandroupoli — Graph

°F

Alexandroupoli Temperature Yesterday

Maximum temperature yesterday: 93 °F (at 3:50 pm)
Minimum temperature yesterday: 61 °F (at 5:50 am)
Average temperature yesterday: 81 °F

High & Low Weather Summary for the Past Weeks

 TemperatureHumidityPressure
High95 °F (Jul 13, 4:50 pm)94% (Jul 19, 5:50 am)30.04 "Hg (Jul 19, 5:50 am)
Low61 °F (Jul 19, 5:50 am)26% (Jul 10, 2:50 pm)29.68 "Hg (Jul 13, 5:50 pm)
Average79 °F52%29.90 "Hg
* Reported Jul 7 12:20 pm — Jul 22 12:50 pm, Alexandroupoli. Weather by CustomWeather, © 2017

Note: Actual official high and low records may vary slightly from our data, if they occured in-between our weather recording intervals... More about our weather records

Advertising

Alexandroupoli Weather History for the Previous 24 Hours

Scroll right to see more
 ConditionsComfort  
Time TempWeatherWind HumidityBarometerVisibility
12:50 pm
Sat, Jul 22
90 °FSunny.14 mph31%29.98 "Hg10 mi
12:20 pm88 °FSunny.12 mph33%29.98 "Hg10 mi
11:50 am88 °FSunny.13 mph33%29.98 "Hg10 mi
11:20 am86 °FSunny.14 mph35%29.98 "Hg10 mi
10:50 am86 °FSunny.12 mph35%29.98 "Hg10 mi
10:20 am82 °FSunny.12 mph48%29.98 "Hg10 mi
9:50 am81 °FSunny.12 mph51%29.98 "Hg10 mi
9:20 am77 °FSunny.3 mph54%29.98 "Hg10 mi
8:50 am73 °FSunny.3 mph65%29.98 "Hg10 mi
8:20 am70 °FSunny.3 mph64%29.95 "Hg10 mi
7:20 am64 °FSunny.No wind73%29.95 "Hg10 mi
6:50 am61 °FSunny.No wind83%29.95 "Hg10 mi
6:20 am61 °FSunny.No wind83%29.95 "Hg10 mi
11:50 pm
Fri, Jul 21
73 °FClear.6 mph57%29.95 "Hg10 mi
11:20 pm73 °FClear.5 mph57%29.92 "Hg10 mi
10:20 pm79 °FClear.6 mph48%29.92 "Hg10 mi
9:50 pm79 °FClear.6 mph48%29.92 "Hg10 mi
9:20 pm82 °FClear.7 mph42%29.89 "Hg10 mi
8:50 pm82 °FClear.7 mph42%29.89 "Hg10 mi
8:20 pm84 °FSunny.12 mph35%29.89 "Hg10 mi
7:50 pm86 °FSunny.14 mph35%29.89 "Hg10 mi
7:20 pm88 °FPassing clouds.16 mph29%29.86 "HgN/A
6:50 pm90 °FPassing clouds.13 mph27%29.86 "HgN/A
6:20 pm91 °FPassing clouds.12 mph28%29.86 "HgN/A
5:50 pm91 °FPassing clouds.14 mph28%29.86 "HgN/A
5:20 pm93 °FPassing clouds.12 mph26%29.86 "HgN/A
4:50 pm93 °FPassing clouds.14 mph26%29.86 "HgN/A
4:20 pm93 °FPassing clouds.16 mph26%29.89 "HgN/A
3:50 pm93 °FPassing clouds.14 mph26%29.89 "HgN/A
3:20 pm91 °FPassing clouds.12 mph28%29.89 "HgN/A
2:50 pm90 °FPassing clouds.14 mph31%29.89 "HgN/A
Weather by CustomWeather, © 2017

See weather overviewHow to use our weather pages